Location: Strawberry
(45.6646°N, 111.9596°W)
Time: 11:13:52
(UTC+00:00)

Transit 2A Rocket - Visible Passes

Search period start: 05 October 2022 00:00
Search period end: 15 October 2022 00:00
Orbit: 593 x 908 km, 66.7° (Epoch: 05 October)

Date Brightness Start Highest point End Pass type
(mag) Time Alt. Az. Time Alt. Az. Time Alt. Az.
05 Oct 5.2 12:22:05 10° SSW 12:26:17 55° ESE 12:30:31 10° NE visible
06 Oct 6.3 11:39:48 10° S 11:43:32 30° ESE 11:47:19 10° NE visible
07 Oct 7.1 10:58:13 10° SSE 11:00:54 16° ESE 11:03:36 10° ENE visible
07 Oct 4.6 12:38:42 10° SW 12:42:55 56° NW 12:47:14 10° NNE visible
08 Oct 4.5 11:57:14 22° SSW 12:00:00 81° ESE 12:04:22 10° NE visible
09 Oct 5.5 11:16:14 37° SSE 11:17:12 43° ESE 11:21:19 10° NE visible
09 Oct 5.7 12:56:18 10° W 12:59:52 25° NW 13:03:31 10° NNE visible
10 Oct 6.6 10:35:05 23° E 10:35:05 23° E 10:37:56 10° ENE visible
10 Oct 5.0 12:15:01 27° W 12:16:45 40° NW 12:20:54 10° NNE visible
11 Oct 4.4 11:33:46 71° NW 11:33:46 71° NW 11:38:08 10° NNE visible
12 Oct 5.9 10:52:25 37° NE 10:52:25 37° NE 10:55:11 10° NE visible
12 Oct 6.1 12:32:19 16° WNW 12:33:49 19° NW 12:37:02 10° N visible
13 Oct 7.3 10:11:00 16° ENE 10:11:00 16° ENE 10:12:02 10° NE visible
13 Oct 5.6 11:50:54 29° NW 11:50:54 29° NW 11:54:31 10° NNE visible
14 Oct 6.0 11:09:25 29° N 11:09:25 29° N 11:11:50 10° NNE visible
14 Oct 6.7 12:50:15 10° NW 12:51:13 11° NNW 12:52:10 10° NNW visible
